LogoCoinalyze
    Ad-Free Version Главная Рынки Ставки финансирования
    Фьючерсные данные
    • Агрегированные данные (Коины)
    • Индивидуальные графики
    • Глобальные графики
    Оповещения
    TA
    Bitcoin Ethereum BNB Ripple Tron ZCash Dogecoin Monero Chainlink UNUS SED LEO Cardano Stellar Lumens Bitcoin Cash Litecoin Hedera Cronos Polkadot Ethereum Classic Algorand Cosmos Quant Dash VeChain Bitcoin SV BitTorrent Terra Decred Tezos The Graph Iota THETA MultiversX NEO Decentraland Chiliz Horizen Golem Basic Attention Token Qtum 0x DigiByte Beam RIF Token FTX Token FUNToken Holo aelf Ontology Zilliqa Enjin Coin Nano Ravencoin Verge Mask Network Siacoin Status WINk Waves IoTeX Power Ledger iExec RLC Steem Kyber Network Crystal Lisk Ark Ardor WOO Network IOST WAX Icon Storj Wanchain Loopring Bitcoin Diamond Augur AdEx Bitcoin Gold OmiseGO NEM MonaCoin BitShares Ren Komodo V Systems Nuls Mithril SOLVE Aion EOS Maker HedgeTrade Nebulas Bread Fetch.ai TomoChain Polygon Fantom Waltonchain GXChain Bytom Metaverse ETP MaidSafeCoin QASH
    Заказать:
    Еще
    • API
    • Паттерны свечей
    • Пожертвования
    • Контактная
    • Карта сайта
    • Privacy Policy
    • Disclaimer
    • Theme:
    Русский
    • English
    • Français
    • Deutsch
    • Türkçe
    • Nederlands
    • Português (BR)
    • Español
    • 한국어
    • 简体中文
    • 日本語
     
    Войти / Подписаться
    Markets/ Pepe/ PEPE к BRL/ PEPEBRL Binance
    Trades
    WL
    Чат
    Стат
    Новости
    ⦷
    AAA
    0.00001842 24242200.00000000 19:52:12
    0.00001840 71083253.00000000 19:52:06
    0.00001840 35020900.00000000 19:52:06
    0.00001840 200595422.00000000 19:50:23
    0.00001840 543774.00000000 19:47:56
    0.00001840 14367030.00000000 19:47:55
    0.00001840 543774.00000000 19:47:55
    0.00001840 543774.00000000 19:47:55
    0.00001840 543774.00000000 19:47:55
    0.00001840 543774.00000000 19:47:55
    0.00001836 50860245.00000000 19:47:03
    0.00001836 413861200.00000000 19:47:03
    0.00001836 135535776.00000000 19:37:15
    0.00001835 163525449.00000000 19:36:34
    0.00001835 108995134.00000000 19:36:34
    0.00001835 163525449.00000000 19:36:33
    0.00001835 17085900.00000000 19:36:33
    0.00001835 17085900.00000000 19:36:33
    0.00001835 108995134.00000000 19:36:33
    0.00001835 289606483.00000000 19:36:32
    0.00001834 2724795.00000000 19:32:36
    0.00001833 2274302.00000000 19:32:11
    0.00001835 70.00000000 19:31:25
    0.00001835 360517000.00000000 19:31:25
    0.00001839 118866838.00000000 19:29:11
    0.00001838 17085900.00000000 19:29:11
    0.00001837 544366.00000000 19:28:59
    0.00001838 544366.00000000 19:28:59
    0.00001838 544366.00000000 19:28:59
    0.00001838 544366.00000000 19:28:59
    0.00001838 14364070.00000000 19:28:59
    0.00001838 544366.00000000 19:28:59
    0.00001838 14364070.00000000 19:28:56
    0.00001838 544366.00000000 19:28:56
    0.00001838 544366.00000000 19:28:56
    0.00001838 544366.00000000 19:28:56
    0.00001838 544366.00000000 19:28:56
    0.00001838 544366.00000000 19:28:56
    0.00001838 27730239.00000000 19:25:31
    0.00001836 272520583.00000000 19:24:41
    0.00001835 289606483.00000000 19:23:41
    0.00001835 17085900.00000000 19:22:49
    0.00001834 146277891.00000000 19:22:49
    0.00001835 163525500.00000000 19:22:10
    0.00001835 108995000.00000000 19:22:09
    0.00001835 163525400.00000000 19:22:09
    0.00001835 57835534.00000000 19:22:08
    0.00001835 51159600.00000000 19:22:08
    0.00001835 49.00000000 19:22:08
    0.00001835 163525400.00000000 19:22:08
    0.00001836 1089324.00000000 19:22:07
    0.00001835 108995134.00000000 19:22:07
    0.00001835 163525449.00000000 19:22:07
    0.00001837 9672442.00000000 19:21:21
    0.00001836 272438902.00000000 19:19:22
    0.00001834 84.00000000 19:19:14
    0.00001834 5800200.00000000 19:18:31
    0.00001830 12689775.00000000 19:15:54
    0.00001830 8251366.00000000 19:14:07
    0.00001829 27354817.00000000 19:11:49
    0.00001830 66.00000000 19:10:09
    0.00001830 5464500.00000000 19:10:09
    0.00001830 5432737.00000000 19:06:49
    0.00001830 16298210.00000000 19:04:57
    0.00001832 100000000.00000000 19:03:00
    0.00001829 17.00000000 19:01:07
    0.00001829 1857400.00000000 19:00:42
    0.00001829 65228483.00000000 18:59:42
    0.00001828 1220725.00000000 18:57:46
    0.00001827 5466615.00000000 18:50:27
    0.00001827 93.00000000 18:40:13
    0.00001827 205753400.00000000 18:40:09
    0.00001827 5463622.00000000 18:39:13
    0.00001829 2733305.00000000 18:34:31
    0.00001832 9984400.00000000 18:07:01
    0.00001831 53327654.00000000 18:06:59
    0.00001829 9330124.00000000 18:06:53
    0.00001829 44606620.00000000 18:06:53
    0.00001823 2737806.00000000 18:01:53
    0.00001819 71467839.00000000 17:58:01
    0.00001819 923484.00000000 17:57:11
    0.00001818 671609.00000000 17:56:42
    0.00001814 117105115.00000000 17:51:48
    0.00001814 139713722.00000000 17:51:36
    0.00001814 46572400.00000000 17:51:36
    0.00001814 1159550800.00000000 17:51:36
    0.00001814 65274321.00000000 17:51:36
    0.00001813 17085900.00000000 17:51:36
    0.00001814 5806091.00000000 17:46:43
    0.00001815 1099927.00000000 17:42:31
    0.00001819 557015.00000000 17:39:11
    0.00001818 54875936.00000000 17:31:46
    0.00001816 87225300.00000000 17:29:05
    0.00001821 34156150.00000000 17:28:56
    0.00001820 42142642.00000000 17:28:56
    0.00001819 42141254.00000000 17:28:56
    0.00001818 55615527.00000000 17:28:56
    0.00001817 17085900.00000000 17:28:56
    0.00001818 41002622.00000000 17:28:34
    0.00001817 70547429.00000000 17:24:43
    Выйти
    AAA
    Помощь
    🙂 🤣 😎 🤗 😛 😉 😜 🤑 🤔 😑 😴 😕 🙃 😲 😇 🙁 😢 😬 😟 😠 🕺 🏃 💪 ✌ 👌 👍 👎 👏 👋 🤝 🍺 🍻 🐋 🐟 🦈 🗽 🚄 ✈ 🛑 🚀 🏦 🌚 ⭐ 🌞 ⚡ 🏆 💰 💲 🔨 ❓ ❗ 💯 🔶 🏁
    ☺
    Войти или Подписаться и Чат
    24 Часа
    Изменения
    -4.71%
    Объем
    44,458,051,812
    Хай
    0.00001957
    Лоу
    0.00001788
    7 Дней
    Изменения
    -8.59%
    Объем
    354,266,623,994
    Хай
    0.00002054
    Лоу
    0.00001723
    30 Дней
    Изменения
    +23.87%
    Объем
    1,635,561,938,240
    Хай
    0.00002350
    Лоу
    0.00001325
    DOGE, SHIB, PEPE, or Something Else: Which Meme Coin Can Make History in September? (3 AIs Weigh In)
    "DOGE remains the most likely to record the largest move in dollar terms and lead the entire sector," ChatGPT stated.
    cryptopotato.com
    Sept 3, 2026 00:41
    Pepe price rallies 25% as whale demand and futures interest surge
    Key takeaways Pepe has gained 25% this week, including a combined 22% advance over the previous two days. Seven whale transactions worth more than $1 million each occurred Thursday, the highest...
    coinjournal.net
    Aug 21, 2026 08:41
    PEPE Supply on Exchanges Just Took a Massive Hit – What’s Next?
    A drop in PEPE exchange balances has added to bullish expectations despite muted trader interest.
    cryptopotato.com
    Aug 6, 2026 20:02
    PEPE Exchange Outflows Hit Nearly 2-Year High as Whales Accumulate
    Pepe (PEPE) recorded its largest single-day exchange outflow since November 2024, with 4.54 trillion tokens leaving trading platforms, signaling that holders are moving supply away from immediate...
    beincrypto.com
    Aug 6, 2026 04:57
    Meme Coin Based on White House Shooter Conspiracy Rallies 320%
    $HENRY surged 300% after a 2023 Pepe tweet appeared to name the White House shooter, fueling a viral time-travel meme. The post Meme Coin Based on White House Shooter Conspiracy Rallies 320%...
    beincrypto.com
    Apr 27, 2026 16:11
    PEPE surges 4% as market sentiment improves, eyes Key resistance breakout
    Key takeaways Pepe extends gains on Wednesday, stretching its rally from the 50-day EMA. Derivatives data show heightened retail activity as risk-on sentiment returns to the market. Pepe (PEPE) is...
    coinjournal.net
    Apr 22, 2026 11:44
    Why The PEPE Price Could Stage A 55X Rally To Reach New $0.0001 ATH
    The PEPE price has now started to edge back into bullish conversations after the recent inflows into the crypto market. The last time PEPE’s weekly chart printed the kind of structure now...
    newsbtc.com
    Apr 21, 2026 15:30
    Pepe (PEPE) surges 9%, drawing interest from whales
    Key takeaways PEPE is up 9% in the last 24 hours, making it one of the best performers among the top 50 cryptocurrencies by market cap. The rally comes amid renewed interest from whales and retail...
    coinjournal.net
    Apr 16, 2026 07:40
    Murad Says SPX6900 (SPX) Is Primed for a Rally — Is He Right This Time?
    Crypto influencer Murad Mahmudov claims SPX6900 (SPX) is stabilizing at the same market cap level where Dogecoin (DOGE) and Pepe (PEPE) consolidated before their explosive rallies. The...
    beincrypto.com
    Apr 5, 2026 21:36
    The Shiba Inu Of This Cycle: Analyst Shares Why It Is Better To Buy PEPE Now
    In the bull market cycle of 2021-2022, the Shiba Inu meme coin made waves in a way that changed the face of meme coins forever. This came after Dogecoin’s initial 36,000% rally, and Shiba Inu...
    newsbtc.com
    Apr 4, 2026 07:30
    PEPE Explodes by 18% Amid Altcoin Rally, BTC Tapped $74K: Market Watch
    The frog-themed meme coin is today's biggest gainer, followed by TAO, DOT, and BONK.
    cryptopotato.com
    Mar 16, 2026 10:56
    Should PEPE traders brace for volatility as short squeeze potential builds?
    The memecoin market has seen its collective market capitalization drop by 48% over the past year, and 6.9% over the past month, according to CoinMarketCap. According to Glassnode, the memecoin...
    ambcrypto.com
    Mar 7, 2026 18:00
    Просто напечатайте соответствующую команду в чате. Заменить никнейм 1 на действительный никнейм
    • /ignore nick1 Игнорировать пользователя чатом
    • /unignore nick1 Перестать игнорировать пользователя чатом
    • /ignorelist Показать проигнорированных пользователей чатом